Location: Unspecified
(46.0725°N, 13.7344°E)
Time: 23:38:16
(UTC+02:00)

Cosmos 1674 - Visible Passes

Search period start: 12 June 2024 00:00
Search period end: 22 June 2024 00:00
Orbit: 436 x 453 km, 82.5° (Epoch: 12 June)

Date Brightness Start Highest point End Pass type
(mag) Time Alt. Az. Time Alt. Az. Time Alt. Az.
12 Jun 5.5 22:58:42 10° W 23:00:16 13° WNW 23:01:52 10° NW visible
13 Jun 4.7 22:19:55 10° SW 22:22:52 26° WNW 22:25:50 10° NNW visible
14 Jun 3.0 21:42:08 10° SSW 21:45:33 61° W 21:48:59 10° N visible
15 Jun 5.8 22:42:09 10° W 22:42:55 11° WNW 22:43:40 10° NW visible
16 Jun 5.1 22:02:38 10° SW 22:05:22 22° WNW 22:08:08 10° NNW visible
19 Jun 5.4 21:45:05 10° WSW 21:47:35 19° WNW 21:50:05 10° NNW visible
